CZ-6A DEB

Satellite information

Favourite Embed

Satellite Type and Status

DEBRISIN ORBIT

Key statistics

Satellite CZ-6A DEB at a glance.

Uptime

1076

Days in orbit

Revolutions

≈ 14.5

Per day

Orbit

SSO

Sun Synchronous Orbit

Inclination

98.6

Latest

Satellite identification and parameters

Extended collection of information and parameters for CZ-6A DEB.

Object identification

Identified? True

Debris? True

Object name: CZ-6A DEB

International designator: 2022-151LZ

Object number (NORAD): 54573

Object ID (CCSDS): 54573

Country: PEOPLES REPUBLIC OF CHINA (PRC)

Current information (Y/N): Y

RCS size: SMALL

Orbital parameters

Period: 99.212 minutes

Inclination: 98.6342 deg

SMA: 7099.097 km

Apoapsis: 788.369 km

Periapsis: 653.554 km

RAAN: 336.9486 deg

Eccentricy: 0.0094952

Argument of periapsis: 310.9072 deg

Mean anomaly: 48.3926 deg

Mean motion: 14.51436816 rev/day

Mean motion (dot): 0.00006904 rev/day2

B* drag term: 0.0016424 1/REarth

Two-line elements (TLE)

Creation date: Oct. 22, 2025, 12:06 a.m.

Reference frame: TEME

Reference center: EARTH

Epoch: Oct. 21, 2025, 1:40 p.m. UTC

TLE line 0: 0 CZ-6A DEB

TLE line 1: 1 54573U 22151LZ 25294.56959605 .00006904 00000-0 16424-2 0 9990

TLE line 2: 2 54573 98.6342 336.9486 0094952 310.9072 48.3926 14.51436816154380

Live tracking on map

Real-time ground track for satellite CZ-6A DEB.

In-orbit conjunctions

A list of the most updated potential collisions computed for object CZ-6A DEB.

Target Orbit TCA Probability of collision Miss distance Type
SL-8 R/B LEO 2025-05-04 12:33:10 0.0001032295 299.0 (m) ROCKET BODY
COSMOS 2208 LEO 2024-12-18 10:38:02 0.0001979014 740.0 (m) PAYLOAD

Associated space launch

Chinese satellite reported for atmospheric/ocean/environmental/spatial parameter research purposes, details TBD.

CZ-6A DEB was lifted into orbit during the mission ‘Long March 6A | Yunhai 3’, on board a Long March 6A space rocket.

The launch took place on Nov. 11, 2022, 10:52 p.m. from Launch Complex 9A.

For more information about the launch, click the button.

Launch to space Long March 6A | Yunhai 3
Long March 6A | Yunhai 3

Agency: N/A

Status: Launch Successful

Launch date: Nov. 11, 2022, 10:52 p.m. UTC

Rocket: Long March 6A

Launch pad: Launch Complex 9A

Location: Taiyuan Satellite Launch Center, People's Republic of China

...

Latest news about this satellite

There are no fresh news available about this satellite. Check back as we update our databases every day.


Newsletter sign-up

Weekly statistics, charts and insights to help you stay on top of the space industry.